TimeEST,TemperatureF,Dew PointF,Humidity,Sea Level PressureIn,VisibilityMPH,Wind Direction,Wind SpeedMPH,Gust SpeedMPH,PrecipitationIn,Events,Conditions,WindDirDegrees,DateUTC
12:15 AM,26.6,24.8,93,30.00,7.0,NNW,8.1,-,N/A,,Scattered Clouds,340,2014-02-02 05:15:00
12:35 AM,26.6,24.8,93,30.01,7.0,NNW,9.2,-,N/A,,Scattered Clouds,330,2014-02-02 05:35:00
12:55 AM,26.6,23.0,86,30.02,7.0,NNW,4.6,-,N/A,,Mostly Cloudy,340,2014-02-02 05:55:00
1:15 AM,26.6,24.8,93,30.02,7.0,North,6.9,-,N/A,,Overcast,350,2014-02-02 06:15:00
1:35 AM,26.6,23.0,86,30.03,10.0,NNW,9.2,-,N/A,,Overcast,340,2014-02-02 06:35:00
1:55 AM,26.6,23.0,86,30.03,10.0,North,9.2,-,N/A,,Overcast,350,2014-02-02 06:55:00
2:15 AM,26.6,23.0,86,30.03,10.0,North,9.2,-,N/A,,Overcast,350,2014-02-02 07:15:00
2:35 AM,26.6,23.0,86,30.04,10.0,North,6.9,-,N/A,,Overcast,360,2014-02-02 07:35:00
2:55 AM,26.6,23.0,86,30.04,10.0,North,5.8,-,N/A,,Overcast,360,2014-02-02 07:55:00
3:15 AM,26.6,23.0,86,30.06,10.0,North,3.5,-,N/A,,Overcast,360,2014-02-02 08:15:00
3:35 AM,26.6,23.0,86,30.05,10.0,North,8.1,-,N/A,,Overcast,360,2014-02-02 08:35:00
3:55 AM,26.6,23.0,86,30.06,10.0,NNW,3.5,-,N/A,,Overcast,340,2014-02-02 08:55:00
4:15 AM,26.6,23.0,86,30.07,10.0,North,3.5,-,N/A,,Overcast,360,2014-02-02 09:15:00
4:35 AM,26.6,23.0,86,30.07,10.0,North,5.8,-,N/A,,Overcast,350,2014-02-02 09:35:00
4:55 AM,26.6,23.0,86,30.06,10.0,North,4.6,-,N/A,,Overcast,10,2014-02-02 09:55:00
5:15 AM,26.6,23.0,86,30.07,10.0,North,4.6,-,N/A,,Overcast,360,2014-02-02 10:15:00
5:35 AM,26.6,23.0,86,30.09,10.0,Calm,Calm,-,N/A,,Overcast,0,2014-02-02 10:35:00
5:55 AM,26.6,23.0,86,30.09,10.0,Calm,Calm,-,N/A,,Overcast,0,2014-02-02 10:55:00
6:15 AM,26.6,23.0,86,30.08,10.0,Calm,Calm,-,N/A,,Overcast,0,2014-02-02 11:15:00
6:35 AM,26.6,23.0,86,30.09,10.0,Calm,Calm,-,N/A,,Overcast,0,2014-02-02 11:35:00
6:55 AM,26.6,23.0,86,30.09,10.0,Calm,Calm,-,N/A,,Overcast,0,2014-02-02 11:55:00
7:15 AM,26.6,23.0,86,30.10,10.0,Calm,Calm,-,N/A,,Overcast,0,2014-02-02 12:15:00
7:35 AM,26.6,23.0,86,30.11,10.0,NW,3.5,-,N/A,,Overcast,310,2014-02-02 12:35:00
7:55 AM,26.6,23.0,86,30.11,10.0,NNW,3.5,-,N/A,,Overcast,330,2014-02-02 12:55:00
8:15 AM,26.6,23.0,86,30.12,10.0,Calm,Calm,-,N/A,,Overcast,0,2014-02-02 13:15:00
8:35 AM,26.6,23.0,86,30.13,10.0,NNW,3.5,-,N/A,,Overcast,340,2014-02-02 13:35:00
8:55 AM,26.6,23.0,86,30.14,10.0,NW,3.5,-,N/A,,Overcast,320,2014-02-02 13:55:00
9:15 AM,26.6,23.0,86,30.14,10.0,NNW,5.8,-,N/A,,Overcast,340,2014-02-02 14:15:00
9:35 AM,26.6,23.0,86,30.15,10.0,NW,4.6,-,N/A,,Overcast,320,2014-02-02 14:35:00
9:55 AM,26.6,21.2,80,30.17,10.0,NW,5.8,-,N/A,,Overcast,310,2014-02-02 14:55:00
10:15 AM,26.6,23.0,86,30.19,10.0,WNW,6.9,-,N/A,,Overcast,290,2014-02-02 15:15:00
10:35 AM,26.6,21.2,80,30.18,10.0,NW,11.5,-,N/A,,Overcast,310,2014-02-02 15:35:00
10:55 AM,26.6,21.2,80,30.19,10.0,NW,11.5,-,N/A,,Overcast,310,2014-02-02 15:55:00
11:15 AM,26.6,19.4,74,30.20,10.0,NW,11.5,-,N/A,,Overcast,310,2014-02-02 16:15:00
11:35 AM,24.8,21.2,86,30.20,10.0,NW,11.5,-,N/A,,Overcast,310,2014-02-02 16:35:00
11:55 AM,24.8,21.2,86,30.21,10.0,NW,12.7,-,N/A,,Overcast,310,2014-02-02 16:55:00
12:15 PM,26.6,19.4,74,30.20,10.0,NNW,12.7,-,N/A,,Overcast,330,2014-02-02 17:15:00
12:35 PM,26.6,17.6,69,30.20,10.0,WNW,11.5,-,N/A,,Overcast,300,2014-02-02 17:35:00
12:55 PM,26.6,19.4,74,30.18,10.0,NW,15.0,-,N/A,,Overcast,310,2014-02-02 17:55:00
1:15 PM,24.8,17.6,74,30.17,10.0,NNW,13.8,18.4,N/A,,Overcast,330,2014-02-02 18:15:00
1:35 PM,24.8,17.6,74,30.18,10.0,NW,9.2,-,N/A,,Mostly Cloudy,310,2014-02-02 18:35:00
1:55 PM,26.6,17.6,69,30.18,10.0,NW,11.5,16.1,N/A,,Overcast,310,2014-02-02 18:55:00
2:15 PM,26.6,17.6,69,30.16,10.0,NW,11.5,16.1,N/A,,Overcast,310,2014-02-02 19:15:00
2:35 PM,24.8,17.6,74,30.18,10.0,NW,11.5,-,N/A,,Overcast,320,2014-02-02 19:35:00
2:55 PM,24.8,17.6,74,30.17,10.0,NW,12.7,16.1,N/A,,Scattered Clouds,310,2014-02-02 19:55:00
3:15 PM,23.0,17.6,80,30.20,10.0,NW,10.4,18.4,N/A,,Clear,310,2014-02-02 20:15:00
3:35 PM,23.0,17.6,80,30.21,10.0,NW,10.4,-,N/A,,Scattered Clouds,310,2014-02-02 20:35:00
3:55 PM,23.0,17.6,80,30.21,10.0,NW,8.1,-,N/A,,Scattered Clouds,310,2014-02-02 20:55:00
4:15 PM,23.0,15.8,74,30.22,10.0,WNW,10.4,-,N/A,,Scattered Clouds,300,2014-02-02 21:15:00
4:35 PM,23.0,15.8,74,30.23,10.0,WNW,11.5,-,N/A,,Scattered Clouds,300,2014-02-02 21:35:00
4:55 PM,21.2,15.8,80,30.23,10.0,NW,10.4,-,N/A,,Clear,310,2014-02-02 21:55:00
5:15 PM,21.2,15.8,80,30.23,10.0,NW,8.1,-,N/A,,Scattered Clouds,310,2014-02-02 22:15:00
5:35 PM,21.2,14.0,74,30.24,10.0,NW,6.9,-,N/A,,Scattered Clouds,310,2014-02-02 22:35:00
5:55 PM,21.2,14.0,74,30.25,10.0,NW,8.1,-,N/A,,Scattered Clouds,310,2014-02-02 22:55:00
6:15 PM,21.2,14.0,74,30.25,10.0,NW,4.6,-,N/A,,Mostly Cloudy,310,2014-02-02 23:15:00
6:35 PM,21.2,14.0,74,30.25,10.0,NNW,6.9,-,N/A,,Overcast,340,2014-02-02 23:35:00
6:55 PM,19.4,14.0,80,30.25,10.0,NNW,8.1,-,N/A,,Scattered Clouds,340,2014-02-02 23:55:00
7:15 PM,19.4,12.2,74,30.27,10.0,NNW,5.8,-,N/A,,Clear,340,2014-02-03 00:15:00
7:35 PM,19.4,12.2,74,30.26,10.0,North,3.5,-,N/A,,Mostly Cloudy,350,2014-02-03 00:35:00
7:55 PM,19.4,12.2,74,30.26,10.0,Calm,Calm,-,N/A,,Overcast,0,2014-02-03 00:55:00
8:15 PM,19.4,12.2,74,30.26,10.0,NNW,4.6,-,N/A,,Overcast,330,2014-02-03 01:15:00
8:35 PM,19.4,12.2,74,30.26,10.0,North,5.8,-,N/A,,Overcast,350,2014-02-03 01:35:00
8:55 PM,19.4,12.2,74,30.25,10.0,North,5.8,-,N/A,,Overcast,350,2014-02-03 01:55:00
9:15 PM,19.4,12.2,74,30.25,10.0,North,3.5,-,N/A,,Overcast,360,2014-02-03 02:15:00
9:35 PM,17.6,12.2,79,30.25,10.0,Calm,Calm,-,N/A,,Overcast,0,2014-02-03 02:35:00
9:55 PM,17.6,12.2,79,30.25,10.0,NNW,3.5,-,N/A,,Scattered Clouds,340,2014-02-03 02:55:00
10:15 PM,17.6,12.2,79,30.25,10.0,North,4.6,-,N/A,,Clear,360,2014-02-03 03:15:00
10:35 PM,17.6,12.2,79,30.24,10.0,North,4.6,-,N/A,,Clear,10,2014-02-03 03:35:00
10:55 PM,17.6,12.2,79,30.26,10.0,North,3.5,-,N/A,,Clear,360,2014-02-03 03:55:00
11:15 PM,17.6,10.4,73,30.26,10.0,Calm,Calm,-,N/A,,Clear,0,2014-02-03 04:15:00
11:35 PM,15.8,10.4,79,30.28,10.0,NNW,3.5,-,N/A,,Clear,340,2014-02-03 04:35:00
11:55 PM,15.8,10.4,79,30.27,10.0,Calm,Calm,-,N/A,,Clear,0,2014-02-03 04:55:00